TimeMDT,TemperatureF,Dew PointF,Humidity,Sea Level PressureIn,VisibilityMPH,Wind Direction,Wind SpeedMPH,Gust SpeedMPH,PrecipitationIn,Events,Conditions,WindDirDegrees,DateUTC
12:52 AM,64.0,33.1,31,29.98,10.0,North,3.5,-,N/A,,Clear,360,2013-06-27 06:52:00
1:52 AM,55.0,30.0,38,30.01,10.0,East,4.6,-,N/A,,Clear,90,2013-06-27 07:52:00
2:52 AM,48.0,28.9,48,30.06,10.0,SSE,3.5,-,N/A,,Clear,160,2013-06-27 08:52:00
3:52 AM,48.9,32.0,52,30.04,10.0,Calm,Calm,-,N/A,,Clear,0,2013-06-27 09:52:00
4:52 AM,44.1,34.0,68,30.09,10.0,Calm,Calm,-,N/A,,Clear,0,2013-06-27 10:52:00
5:52 AM,44.1,32.0,63,30.10,10.0,Calm,Calm,-,N/A,,Clear,0,2013-06-27 11:52:00
6:52 AM,50.0,34.0,54,30.12,10.0,Calm,Calm,-,N/A,,Clear,0,2013-06-27 12:52:00
7:52 AM,61.0,32.0,34,30.12,10.0,Calm,Calm,-,N/A,,Clear,0,2013-06-27 13:52:00
8:52 AM,68.0,33.1,27,30.12,10.0,Calm,Calm,-,N/A,,Clear,0,2013-06-27 14:52:00
9:52 AM,75.9,33.1,21,30.10,10.0,NNW,6.9,-,N/A,,Clear,340,2013-06-27 15:52:00
10:52 AM,82.0,33.1,17,30.08,10.0,Variable,5.8,-,N/A,,Clear,0,2013-06-27 16:52:00
11:52 AM,84.9,36.0,17,30.09,10.0,North,4.6,-,N/A,,Clear,350,2013-06-27 17:52:00
12:52 PM,89.1,30.9,12,30.04,10.0,Variable,4.6,-,N/A,,Clear,0,2013-06-27 18:52:00
1:52 PM,91.9,28.0,10,30.05,10.0,NE,10.4,-,N/A,,Clear,40,2013-06-27 19:52:00
2:52 PM,91.9,25.0,9,30.06,10.0,Variable,4.6,-,N/A,,Clear,0,2013-06-27 20:52:00
3:52 PM,91.9,23.0,8,30.05,10.0,SE,9.2,-,N/A,,Clear,130,2013-06-27 21:52:00
4:52 PM,93.0,28.9,10,30.05,10.0,West,20.7,25.3,N/A,,Clear,270,2013-06-27 22:52:00
5:52 PM,82.9,34.0,17,30.10,3.0,SW,28.8,42.6,N/A,,Haze,220,2013-06-27 23:52:00
6:52 PM,82.0,35.1,18,30.09,10.0,SSW,16.1,24.2,N/A,,Clear,200,2013-06-28 00:52:00
7:52 PM,78.1,37.9,24,30.07,10.0,SSW,6.9,-,N/A,,Clear,200,2013-06-28 01:52:00
8:52 PM,75.9,37.9,25,30.09,10.0,NNE,3.5,-,N/A,,Clear,30,2013-06-28 02:52:00
9:52 PM,71.1,35.1,27,30.06,10.0,ENE,4.6,-,N/A,,Clear,60,2013-06-28 03:52:00
10:52 PM,73.0,39.9,30,30.06,10.0,East,9.2,-,N/A,,Clear,80,2013-06-28 04:52:00
11:52 PM,71.1,42.1,35,30.07,10.0,ESE,20.7,27.6,N/A,,Clear,110,2013-06-28 05:52:00